Location: Bathurst
(33.4193°S, 149.5775°E)
Time: 08:49:28
(UTC+10:00)

Vanguard 1 Rocket - Pass Details

Date: 15 June 2021
Orbit: 650 x 4226 km, 34.3° (Epoch: 02 August)

Event Time Altitude Azimuth Distance (km) Brightness Sun altitude
Rises 09:55:27 0° 300° (WNW) 7,846 12.1 25.7°
Reaches altitude 10° 10:01:30 10° 302° (WNW) 6,381 11.8 26.4°
Maximum altitude 10:19:17 69° 19° (NNE) 2,168 10.2 28.2°
Drops below altitude 10° 10:28:08 10° 100° (E) 3,391 10.6 29.0°
Sets 10:30:21 0° 103° (ESE) 4,080 10.9 29.2°
